This is the latest recevied weather packets stored in our database for station/object N7WGJ. If no packets are shown the sender has not sent any weather packets the latest 10 day(s).
| Time | Temp. | Humidity | Pressure | Rain* | Wind** | Luminosity | Snow |
|---|---|---|---|---|---|---|---|
| 1777607494 | 17.22° C | 65% | 1016.2 hPa | 0 mm | - | - | - |
| 1777606898 | 17.78° C | 64% | 1016 hPa | 0 mm | - | - | - |
| 1777606298 | 17.78° C | 63% | 1015.9 hPa | 0 mm | - | - | - |
| 1777605696 | 18.33° C | 63% | 1015.8 hPa | 0 mm | - | - | - |
| 1777605099 | 18.89° C | 62% | 1015.9 hPa | 0 mm | - | - | - |
| 1777604513 | 19.44° C | 60% | 1015.8 hPa | 0 mm | - | - | - |
| 1777603901 | 20° C | 58% | 1015.8 hPa | 0 mm | - | - | - |
| 1777603298 | 20.56° C | 57% | 1015.9 hPa | 0 mm | - | - | - |
| 1777602700 | 21.11° C | 56% | 1015.9 hPa | 0 mm | - | - | - |
| 1777602102 | 21.67° C | 54% | 1015.9 hPa | 0 mm | - | - | - |
| 1777600908 | 22.22° C | 50% | 1016.1 hPa | 0 mm | - | - | - |
| 1777600301 | 22.22° C | 48% | 1016.2 hPa | 0 mm | - | - | - |
| 1777599702 | 22.22° C | 49% | 1016.2 hPa | 0 mm | - | - | - |
| 1777598483 | 22.22° C | 50% | 1016.3 hPa | 0 mm | - | - | - |
| 1777597901 | 22.22° C | 49% | 1016.4 hPa | 0 mm | - | - | - |
| 1777597303 | 22.78° C | 50% | 1016.6 hPa | 0 mm | - | - | - |
| 1777596696 | 22.78° C | 47% | 1016.5 hPa | 0 mm | - | - | - |
| 1777596099 | 23.33° C | 47% | 1016.7 hPa | 0 mm | - | - | - |
| 1777595496 | 23.33° C | 48% | 1016.7 hPa | 0 mm | - | - | - |
| 1777594901 | 23.33° C | 51% | 1016.8 hPa | 0 mm | - | - | - |
| 1777594284 | 23.33° C | 51% | 1016.9 hPa | 0 mm | - | - | - |
| 1777593704 | 23.33° C | 51% | 1017.1 hPa | 0 mm | - | - | - |
| 1777593095 | 22.78° C | 52% | 1017.1 hPa | 0 mm | - | - | - |
| 1777592494 | 22.78° C | 53% | 1017.2 hPa | 0 mm | - | - | - |
| 1777591893 | 22.78° C | 53% | 1017.3 hPa | 0 mm | - | - | - |
* Rain latest hour (hover to see other rain measurements)
** Current wind speed in m/s (hover to see current wind gust speed)